SL-12 R/B(AUX MOTOR), 32398

Orbit data source: Space-Track

SL-12 R/B(AUX MOTOR), 32398 is space debris in HEO originally from a launch on Tue, 25 Dec 2007 UTC launched from the Tyuratam Missile And Space Complex (TTMTR). Debris objects in space refer to the collection of defunct objects orbiting the Earth. Examples of debris include non-operational satellites, rocket bodies, and fragments generated from explosions, collisions, or faulty payload assembly.

Loading next visibility...
Identifier
32398, 2007-065F
Orbit
HEO
Country
Flag of CISCIS
Related business
Manufacturer
RKKE
Mission
Spacecraft
Bus & Motor
SOZ, Unknown motor
Mass
56 kg wet, 56 kg dry
Launch date (UTC)
2007-12-25 (18 years ago)
Launch vehicle
Unknown
Launch site
Tyuratam Missile And Space Complex (TTMTR)
Object type
Payload
Rocket body
Debris
Shape & HBR
Cyl, 0.6 m
Radar Cross Section
0.660 m², Medium (>0.1 m² and < 1m²)

Expand to show TLE details & history
Last TLE update: 2 days ago

TLE from 2 days ago
0 SL-12 R/B(AUX MOTOR)
1 32398U 07065F   26171.10687942  .00000054  00000-0 -79895-4 0  9999
2 32398  65.3457 129.9033 5595587 263.9426  33.1253  4.24955525 64491
Epoch: 2026-06-20T02:33Z
TLE epoch observation values (Epoch: 2026-06-20T02:33:54.381Z)
Latitude
0.00008°
Longitude
-176.90471°
Altitude
5,391.024 km
Speed
6.557 km/s
True Right ascension
08h 39m 35s
True Declination
0° 00' 00"
Sunlit
Object was in daylight at epoch
Visualization orbit readout
Latitude
Unknown
Longitude
Unknown
Altitude
Unknown
Speed
Unknown
Apparent Right ascension
Unknown
Apparent Declination
Unknown
Sunlit
N/A
Visualization observer readout
Local Sidereal Time
00:39:45
Azimuth
Unknown
Elevation
Unknown
Doppler factor
Unknown
Orbital elements
Apogee altitude
18,729.772 km
Perigee altitude
712.689 km
Semi-major axis
16,099.367 km
Eccentricity
0.55956
Inclination
65.3457°
RAAN
129.9033°
Arg. of periapsis
263.9426°
True anomaly
96.14577°
Mean anomaly
33.1253°
Eccentric anomaly
61.22738°
Mean motion
1.0625 °/min
Orbital period
338.82 mins
BSTAR
-0.000079895
Loading maneuver chart data...
Computing Atmospheric mass density...
Loading historical data...
Loading historical data...
Loading historical data...
Loading historical data...
Loading historical data...
Loading historical data...
Loading historical data...

Documentation

Showing up to 5 results
|